Regional Weather Roundup
Issued by NWS

Home | Current Version | Previous Version | Graphics & Text | Print | Product List | Glossary On
Versions: 1 2 3 4 5 6 7 8 9 10 11 12 13 14 15 16 17 18 19 20 21 22 23 24 25 26 27 28 29 30 31 32 33 34 35 36 37 38 39 40 41 42 43 44 45 46 47 48 49 50
000
ASUS43 KIND 261809
RWRIN

WEATHER ROUNDUP FOR INDIANA
NATIONAL WEATHER SERVICE INDIANAPOLIS IN
200 PM EDT SAT JUL 26 2014

NOTE: "FAIR" INDICATES FEW OR NO CLOUDS BELOW 12,000 FEET WITH NO
SIGNIFICANT WEATHER AND/OR OBSTRUCTIONS TO VISIBILITY.

* - STATION DOES NOT REPORT WEATHER SUCH AS PRECIPITATION OR FOG.

+ - STATION NOT QUALITY CONTROLLED BY THE NATIONAL WEATHER SERVICE.
    USE DATA WITH CAUTION...ESPECIALLY DEWPOINT AND RELATIVE
    HUMIDITY OBSERVATIONS.

INZ001>003-010>013-019-020-261900-
NORTHWEST INDIANA

CITY           SKY/WX    TMP DP  RH WIND       PRES   REMARKS
GARY /AIRPORT/ CLOUDY    77  68  73 S5        29.84F
KNOX *+        CLOUDY    74  66  75 CALM      29.85F
LA PORTE +     CLOUDY    74  67  78 SW6       29.87F
6HR MIN TEMP:  63; 6HR MAX TEMP:  74;

MICHIGAN CITY+ CLOUDY    73  64  73 S3        29.85F
MONTICELLO +   CLOUDY    74  69  83 SW7       29.87S
RENSSELAER +   CLOUDY    73  70  88 SW5       29.87S
VALPARAISO     CLOUDY    74  67  78 SW7       29.86F
6HR MIN TEMP:  65; 6HR MAX TEMP:  76;


$$

LMZ046-743>745-261900-
SOUTHERN LAKE MICHIGAN

STATION/POSITION TIME  TEMP WIND        PRES
                       AIR  DIR/SP/G
                 (UTC) (F)  (DEG/KT/KT) (MB)
MICHIGAN CITY    1800   72  260/  6/  8   N/A

$$

INZ004-005-014>016-021>024-261900-
NORTH CENTRAL INDIANA

CITY           SKY/WX    TMP DP  RH WIND       PRES   REMARKS
GOSHEN         CLOUDY    79  68  69 SW7       29.84F
6HR MIN TEMP:  65; 6HR MAX TEMP:  79;

LOGANSPORT +   CLOUDY    77  66  69 SW10      29.88F
PERU/GRISSOM   CLOUDY    78  73  85 SW10      29.87F
6HR MIN TEMP:  69; 6HR MAX TEMP:  79;

ROCHESTER +    PTSUNNY   79  68  69 W9        29.86F
SOUTH BEND     CLOUDY    76  66  71 W9        29.86S
6HR MIN TEMP:  65; 6HR MAX TEMP:  77;

WARSAW +       CLOUDY    77  68  73 SW5       29.86F

$$

INZ006>009-017-018-025>027-261900-
NORTHEAST INDIANA

CITY           SKY/WX    TMP DP  RH WIND       PRES   REMARKS
ANGOLA *+      CLOUDY    79  66  65 VRB3      29.85F
AUBURN +       MOSUNNY   81  63  54 S5        29.86F
FORT WAYNE     CLOUDY    79  67  66 SW8       29.87F
6HR MIN TEMP:  65; 6HR MAX TEMP:  80;

HUNTINGTON +   CLOUDY    79  69  71 SW8       29.86F
6HR MIN TEMP:  65; 6HR MAX TEMP:  80;


$$

INZ028-029-035-036-043>045-051>053-261900-
WEST CENTRAL INDIANA

CITY           SKY/WX    TMP DP  RH WIND       PRES   REMARKS
GREENCASTLE +  CLOUDY    79  72  78 CALM      29.90S
LAFAYETTE      CLOUDY    78  70  76 VRB6      29.86F
6HR MIN TEMP:  67; 6HR MAX TEMP:  78;

TERRE HAUTE    PTSUNNY   84  72  67 SW12      29.88F
6HR MIN TEMP:  69; 6HR MAX TEMP:  84;


$$

INZ030>032-037>040-046>048-054>057-064-065-261900-
CENTRAL INDIANA

CITY           SKY/WX    TMP DP  RH WIND       PRES   REMARKS
ANDERSON       PTSUNNY   81  68  65 S10G16    29.91R
CP ATTERBURY + MOSUNNY   82  70  65 SW9       29.91S
COLUMBUS       PTSUNNY   81  72  74 SW14      29.91F
GREENWOOD *+   PTSUNNY   82  75  78 S8        29.90S
INDIANAPOLIS   CLOUDY    82  71  69 SW10      29.88S
6HR MIN TEMP:  67; 6HR MAX TEMP:  82; 6HR PCP: TRACE;

-EAGLE CREEK   MOSUNNY   81  69  67 S8        29.88S
6HR MIN TEMP:  66; 6HR MAX TEMP:  81; 6HR PCP:  0.18;

KOKOMO *+      CLOUDY    79  70  73 W8        29.88S
MARION +       CLOUDY    77  68  74 SW7       29.89F
MT COMFORT *+  SUNNY     82  81  94 S9        29.90S HX  95
SHELBYVILLE    PTSUNNY   82  71  69 SW12      29.90S
6HR MIN TEMP:  69; 6HR MAX TEMP:  82; 6HR PCP: TRACE;

ZIONSVILLE +   PTSUNNY   82  69  65 SW9       29.90F
6HR MIN TEMP:  67; 6HR MAX TEMP:  83; 6HR PCP:  0.01;


$$

INZ033-034-041-042-049-050-058-059-261900-
EAST CENTRAL INDIANA

CITY           SKY/WX    TMP DP  RH WIND       PRES   REMARKS
MUNCIE         PTSUNNY   80  67  64 SW8       29.89S
6HR MIN TEMP:  69; 6HR MAX TEMP:  80;


$$

INZ060-061-067>069-081>083-085>088-261900-
SOUTHWEST INDIANA

CITY           SKY/WX    TMP DP  RH WIND       PRES   REMARKS
EVANSVILLE     MOSUNNY   87  71  58 SW16      29.91F
6HR MIN TEMP:  68; 6HR MAX TEMP:  88;

HUNTINGBURG *+ PTSUNNY   88  73  62 SW15      29.91F HX  96
6HR MIN TEMP:  66; 6HR MAX TEMP:  88;

WASHINGTON +   PTSUNNY   84  74  73 SW13      29.89S
6HR MIN TEMP:  64; 6HR MAX TEMP:  84;


$$

INZ062-063-066-070>080-084-089>092-261900-
SOUTH CENTRAL AND SOUTHEAST INDIANA

CITY           SKY/WX    TMP DP  RH WIND       PRES   REMARKS
BEDFORD +      PTSUNNY   84  68  58 SW9       29.90
BLOOMINGTON    MOSUNNY   83  72  69 SW13G18   29.90F
6HR MIN TEMP:  68; 6HR MAX TEMP:  83;

NORTH VERNON + MOSUNNY   82  72  69 S12       29.92
SEYMOUR +      MOSUNNY   81  57  44 SW12G17   29.90F

$$



USA.gov is the U.S. government's official web portal to all federal, state and local government web resources and services.